| time (UTC) | temp C | wind direction | speed KPH | gust KPH | rain 1hr cm | rain 24hr cm | rain mn cm | humidity % | barometer mb |
| 20260502221311 | 8 | 291 | 6.4 | 11.3 | 0.00 | 0.00 | 0.00 | 38 | 1017.3 |
| 20260502220311 | 8 | 275 | 4.8 | 14.5 | 0.00 | 0.00 | 0.00 | 39 | 1017.3 |
| 20260502215311 | 8 | 291 | 4.8 | 8.0 | 0.00 | 0.00 | 0.00 | 39 | 1017.3 |
| 20260502214311 | 8 | 317 | 6.4 | 11.3 | 0.00 | 0.00 | 0.00 | 38 | 1017.3 |
| 20260502213311 | 8 | 297 | 6.4 | 14.5 | 0.00 | 0.00 | 0.00 | 39 | 1017.3 |
| 20260502212311 | 8 | 281 | 8.0 | 16.1 | 0.00 | 0.00 | 0.00 | 38 | 1017.6 |
| 20260502211311 | 8 | 267 | 8.0 | 14.5 | 0.00 | 0.00 | 0.00 | 38 | 1017.6 |
| 20260502210311 | 8 | 308 | 6.4 | 14.5 | 0.00 | 0.00 | 0.00 | 39 | 1017.3 |
| 20260502205311 | 8 | 291 | 6.4 | 11.3 | 0.00 | 0.00 | 0.00 | 39 | 1017.6 |
| 20260502204311 | 8 | 240 | 4.8 | 12.9 | 0.00 | 0.00 | 0.00 | 39 | 1017.6 |
| 20260502203311 | 8 | 252 | 6.4 | 9.7 | 0.00 | 0.00 | 0.00 | 40 | 1017.6 |
| 20260502202311 | 8 | 241 | 6.4 | 16.1 | 0.00 | 0.00 | 0.00 | 38 | 1017.6 |
| 20260502201311 | 8 | 288 | 4.8 | 8.0 | 0.00 | 0.00 | 0.00 | 38 | 1018.0 |
| 20260502200311 | 8 | 278 | 6.4 | 11.3 | 0.00 | 0.00 | 0.00 | 38 | 1018.0 |
| 20260502195311 | 8 | 292 | 8.0 | 14.5 | 0.00 | 0.00 | 0.00 | 38 | 1018.0 |
| 20260502194311 | 8 | 301 | 4.8 | 14.5 | 0.00 | 0.00 | 0.00 | 36 | 1018.3 |
| 20260502193311 | 9 | 268 | 6.4 | 12.9 | 0.00 | 0.00 | 0.00 | 38 | 1018.3 |
| 20260502192311 | 8 | 273 | 4.8 | 8.0 | 0.00 | 0.00 | 0.00 | 37 | 1018.3 |
| 20260502191311 | 8 | 234 | 6.4 | 11.3 | 0.00 | 0.00 | 0.00 | 38 | 1018.3 |
| 20260502190311 | 8 | 276 | 8.0 | 12.9 | 0.00 | 0.00 | 0.00 | 38 | 1018.7 |
| 20260502185311 | 8 | 234 | 6.4 | 12.9 | 0.00 | 0.00 | 0.00 | 39 | 1018.7 |
| 20260502184311 | 8 | 220 | 4.8 | 11.3 | 0.00 | 0.00 | 0.00 | 39 | 1018.7 |
| 20260502183311 | 8 | 251 | 4.8 | 12.9 | 0.00 | 0.00 | 0.00 | 39 | 1018.7 |
| 20260502182311 | 8 | 260 | 4.8 | 11.3 | 0.00 | 0.00 | 0.00 | 39 | 1018.7 |
| 20260502181311 | 7 | 256 | 6.4 | 20.9 | 0.00 | 0.00 | 0.00 | 40 | 1019.0 |
| 20260502180311 | 7 | 343 | 4.8 | 12.9 | 0.00 | 0.00 | 0.00 | 39 | 1019.0 |
| 20260502170311 | 7 | 319 | 6.4 | 11.3 | 0.00 | 0.00 | 0.00 | 39 | 1019.3 |
| 20260502164311 | 7 | 248 | 3.2 | 6.4 | 0.00 | 0.00 | 0.00 | 41 | 1019.3 |
| 20260502163311 | 7 | 324 | 4.8 | 9.7 | 0.00 | 0.00 | 0.00 | 41 | 1019.3 |
| 20260502162311 | 7 | 304 | 3.2 | 11.3 | 0.00 | 0.00 | 0.00 | 41 | 1019.3 |
| 20260502161311 | 7 | 290 | 4.8 | 9.7 | 0.00 | 0.00 | 0.00 | 41 | 1019.3 |
| 20260502160311 | 7 | 310 | 4.8 | 9.7 | 0.00 | 0.00 | 0.00 | 43 | 1019.0 |
| 20260502152311 | 6 | 359 | 6.4 | 12.9 | 0.00 | 0.00 | 0.00 | 45 | 1019.0 |
| 20260502150311 | 6 | 352 | 6.4 | 12.9 | 0.00 | 0.00 | 0.00 | 50 | 1019.0 |
| 20260502130311 | 5 | 40 | 3.2 | 9.7 | 0.00 | 0.00 | 0.00 | 63 | 1019.3 |
| 20260502123311 | 4 | 22 | 3.2 | 9.7 | 0.00 | 0.00 | 0.00 | 66 | 1019.0 |
| 20260502122311 | 3 | 360 | 3.2 | 9.7 | 0.00 | 0.00 | 0.00 | 68 | 1019.0 |
| 20260502121311 | 3 | 15 | 1.6 | 6.4 | 0.00 | 0.00 | 0.00 | 74 | 1019.0 |
| 20260502120311 | 2 | 335 | 1.6 | 4.8 | 0.00 | 0.00 | 0.00 | 79 | 1019.0 |
| 20260502115311 | 2 | 182 | 0.0 | 1.6 | 0.00 | 0.00 | 0.00 | 89 | 1019.0 |
| 20260502114310 | 1 | 141 | 0.0 | 0.0 | 0.00 | 0.00 | 0.00 | 94 | 1019.0 |
| 20260502113310 | 1 | 174 | 0.0 | 1.6 | 0.00 | 0.00 | 0.00 | 94 | 1018.7 |
| 20260502112310 | 0 | 162 | 0.0 | 1.6 | 0.00 | 0.00 | 0.00 | 94 | 1018.7 |
| 20260502111311 | 0 | 139 | 0.0 | 1.6 | 0.00 | 0.00 | 0.00 | 93 | 1018.7 |
| 20260502110310 | 1 | 150 | 0.0 | 0.0 | 0.00 | 0.00 | 0.00 | 93 | 1018.7 |
| 20260502105310 | 1 | 173 | 0.0 | 0.0 | 0.00 | 0.00 | 0.00 | 93 | 1018.7 |
| 20260502104310 | 1 | 175 | 0.0 | 1.6 | 0.00 | 0.00 | 0.00 | 92 | 1018.3 |
| 20260502103310 | 1 | 180 | 0.0 | 1.6 | 0.00 | 0.00 | 0.00 | 92 | 1018.3 |
| 20260502102310 | 1 | 193 | 1.6 | 3.2 | 0.00 | 0.00 | 0.00 | 92 | 1018.3 |
| 20260502101310 | 1 | 187 | 0.0 | 1.6 | 0.00 | 0.00 | 0.00 | 91 | 1018.3 |
| 20260502100310 | 1 | 205 | 1.6 | 3.2 | 0.00 | 0.00 | 0.00 | 92 | 1018.3 |
| 20260501235817 | 7 | 309 | 4.8 | 9.7 | 0.00 | 0.18 | 0.18 | 56 | 1015.9 |
| 20260501224748 | 8 | 299 | 6.4 | 8.0 | 1.88 | 1.40 | 1.60 | 54 | 1015.9 |
| 20260501223748 | 9 | 341 | 6.4 | 9.7 | 0.94 | 0.94 | 1.14 | 50 | 1015.6 |
| 20260501222748 | 9 | 341 | 6.4 | 9.7 | 0.94 | 0.94 | 1.14 | 50 | 1015.6 |